Location: Unspecified
(0.0000°N, 0.0000°E)
Time: 16:58:04
(UTC+00:00)

SRMSAT - Pass Details

Date: 07 June 2020
Orbit: 848 x 866 km, 20.0° (Epoch: 06 July)

Event Time Altitude Azimuth Distance (km) Brightness Sun altitude
Rises 19:45:17 0° 307° (NW) 3,388 ? -24.3°
Reaches altitude 10° 19:48:08 10° 318° (NW) 2,453 ? -25.0°
Maximum altitude 19:53:16 31° 19° (NNE) 1,442 ? -26.1°
Enters shadow 19:54:16 29° 37° (NE) 1,493 ? -26.4°
